Flag for Austria Weather past 2 weeks in St. Pölten, Lower Austria, Austria

Now
57 °F

Broken clouds.


Feels Like: 53 °F
Forecast: 38 / 44 °F
Wind: 18 mph from Southwest

Location: Tulln Airport

Current Time: Mar 31, 2015 at 1:29:34 PM

Latest Report: Mar 31, 2015 at 12:50 PM


Visibility: 31 mi

Pressure: 29.45 "Hg

Humidity: 67%

Dew point: 46 °F

Location of St. PöltenLocation

Historic Weather in St. Pölten — Graph

°F

St. Pölten temperature yesterday

Maximum temperature yesterday: 54 °F (at 5:50 AM)
Minimum temperature yesterday: 41 °F (at 10:50 PM)
Average temperature yesterday: 48 °F

Past Weeks' High & Low Weather Summary

 TemperatureHumidityPressure
High63 °F (Mar 24, 2:50 PM)100% (Mar 25, 4:50 AM)30.51 "Hg (Mar 25, 4:50 AM)
Low27 °F (Mar 21, 5:50 AM)29% (Mar 21, 2:50 PM)29.45 "Hg (Mar 30, 5:50 AM)
Average48 °F65%30.02 "Hg
* Reported Mar 16 10:50 AM — Mar 31 11:50 AM, St. Pölten, Weather by CustomWeather, © 2015

Note: Actual official high and low records may vary slightly from our data, if they occured in-between our weather recording intervals... More about our weather records

Advertising

St. Pölten weather history for previous 24 hours

 ConditionsComfort  
Time TempWeatherWind HumidityBarometerVisibility
11:50 AM
Tue, Mar 31
50 °FBroken clouds.13 mph76%29.47 "Hg37 mi
10:50 AM48 °FLight rain. Broken clouds.9 mph76%29.47 "Hg22 mi
9:50 AM43 °FPartly sunny.16 mph81%29.50 "Hg22 mi
8:50 AM39 °FLight rain. Broken clouds.18 mph87%29.62 "Hg16 mi
6:50 AM41 °FSprinkles. Passing clouds.8 mph81%29.74 "Hg16 mi
5:50 AM41 °FPassing clouds.6 mph76%29.77 "Hg16 mi
10:50 PM
Mon, Mar 30
41 °FPartly cloudy.12 mph87%29.83 "Hg12 mi
9:50 PM43 °FSprinkles. Passing clouds.25 mph76%29.80 "Hg12 mi
8:50 PM43 °FPassing clouds.16 mph76%29.77 "Hg19 mi
7:50 PM43 °FPartly sunny.5 mph81%29.74 "Hg19 mi
6:50 PM45 °FScattered clouds.15 mph76%29.68 "Hg19 mi
5:50 PM43 °FSprinkles. Broken clouds.18 mph76%29.65 "Hg6 mi
4:50 PM50 °FPartly sunny.28 mph62%29.62 "Hg19 mi
3:50 PM52 °FScattered clouds.30 mph58%29.56 "Hg19 mi
2:50 PM54 °FPartly sunny.31 mph47%29.56 "Hg19 mi
1:50 PM50 °FLight rain. Partly sunny.24 mph58%29.56 "Hg16 mi
Weather by CustomWeather, © 2015

See weather overviewHow to use our weather pages